Location: Pinon Hills
(34.4429°N, 117.6403°W)
Time: 04:46:55
(UTC-07:00)

Daily predictions for brighter satellites

Satellite Brightness Start Highest point End
(mag) Time Altitude Azimuth Time Altitude Azimuth Time Altitude Azimuth
NOSS 3-2 (A) 3.8 00:22:03 60° NNW 00:22:03 60° NNW 00:27:40 10° NNE
Cosmos 1553 Rocket 4.5 00:16:18 10° N 00:21:33 56° NE 00:21:33 56° NE
Atlas Centaur 2 4.2 00:16:59 10° W 00:20:39 28° WSW 00:20:39 28° WSW
Cosmos 2344 3.9 00:27:26 54° E 00:27:26 54° E 00:34:30 10° NE
S3M 4.5 00:43:11 10° N 00:48:02 55° NNW 00:48:02 55° NNW
Cosmos 2082 Rocket 3.3 00:56:18 40° NE 00:56:18 40° NE 00:59:53 10° NNE
Timation 2 Rocket 4.4 00:55:08 66° NNW 00:55:08 66° NNW 01:01:22 10° NNE
CZ-4C R/B 3.4 00:57:08 36° NW 00:57:08 36° NW 01:02:01 10° NNE
Cosmos 1697 Rocket 4.3 00:54:24 10° N 00:59:06 26° ENE 00:59:20 26° ENE
Cosmos 1833 Rocket 3.8 01:05:17 39° NE 01:05:17 39° NE 01:08:51 10° NNE
CZ-2C R/B 4.2 01:11:20 42° NE 01:11:20 42° NE 01:15:46 10° N
CENTAUR R/B 3.0 01:24:49 50° ENE 01:24:49 50° ENE 01:29:54 10° NE
Cosmos 1656 4.4 01:25:13 10° NNW 01:29:39 51° NNE 01:29:39 51° NNE
CZ-2C R/B 3.7 01:35:07 10° N 01:39:10 40° NW 01:39:10 40° NW
Meteor 1-11 4.4 02:11:09 72° N 02:11:09 72° N 02:16:20 10° N
IRAS Rocket 4.3 02:13:57 10° NNE 02:18:54 72° NNE 02:18:54 72° NNE
ERS-2 4.4 02:16:10 10° NNE 02:17:48 24° NNE 02:17:48 24° NNE
Cosmos 540 Rocket 4.2 02:16:16 10° NNW 02:19:57 47° NNW 02:19:57 47° NNW
Cosmos 1980 Rocket 2.3 02:17:08 10° NNW 02:22:16 73° N 02:22:16 73° N
Cosmos 1386 Rocket 4.4 02:24:29 74° ESE 02:24:46 76° E 02:30:56 10° N
Sich 1 4.4 02:30:31 35° NNW 02:30:31 35° NNW 02:33:15 10° N
NPP 3.7 02:27:22 10° NNE 02:32:33 75° ENE 02:32:33 75° ENE
Cosmos 1745 Rocket 4.0 02:33:26 65° W 02:33:30 66° W 02:39:49 10° N
Lacrosse 5 2.2 02:28:44 10° NW 02:33:03 60° N 02:33:03 60° N
Cosmos 2082 Rocket 4.2 02:38:07 15° WNW 02:38:52 15° NW 02:42:03 10° NNW
USA 215 3.4 02:32:49 10° NE 02:39:16 67° NW 02:40:39 54° W
Cosmos 1697 Rocket 4.0 02:37:56 10° NW 02:41:02 28° WNW 02:41:02 28° WNW
Nadezhda 1 Rocket 3.8 02:38:24 10° N 02:44:32 77° W 02:44:50 75° WSW
Meteor 2-10 4.3 02:39:35 10° N 02:44:50 65° E 02:45:29 59° ESE
Cosmos 1709 Rocket 4.2 02:43:51 53° SSE 02:45:10 67° E 02:51:23 10° NNE
Cosmos 1455 3.6 02:46:04 10° N 02:48:56 37° NE 02:48:56 37° NE
SEDSat Delta rocket 3.9 02:50:58 67° SSW 02:51:25 70° S 02:58:08 10° E
Cosmos 1862 Rocket 4.0 02:47:03 10° N 02:51:20 57° ENE 02:51:20 57° ENE
Cosmos 1726 4.5 02:47:58 10° NNW 02:49:01 17° NNW 02:49:01 17° NNW
Cosmos 371 Rocket 3.4 02:46:42 10° NNW 02:50:58 68° NNW 02:50:58 68° NNW
ATLAS 5 CENTAUR R/B 2.2 02:55:32 52° ESE 02:55:32 52° ESE 03:00:26 10° NE
Cosmos 968 Rocket 4.1 02:59:21 42° WNW 02:59:21 42° WNW 03:03:58 10° N
IRS-1C 3.9 02:57:44 10° N 03:03:06 83° WNW 03:03:37 73° SW
BREEZE-M DEB (TANK) 3.9 03:02:03 59° WSW 03:03:11 84° NW 03:18:24 10° NE
Cosmos 2360 4.2 03:02:43 10° NNW 03:08:14 58° WSW 03:08:14 58° WSW
Cosmos 1626 3.0 03:09:24 45° N 03:09:24 45° N 03:12:07 10° N
OAO 1 4.5 03:10:44 64° S 03:10:56 64° SSE 03:16:24 10° E
CENTAUR R/B 4.1 03:11:58 18° WNW 03:14:38 23° NW 03:19:50 10° N
ISS 0.0 03:13:28 10° N 03:15:20 14° NNE 03:17:13 10° ENE
Cosmos 1869 3.4 03:11:49 10° N 03:15:30 74° NNE 03:15:30 74° NNE
AQUA 4.3 03:11:19 10° N 03:15:48 45° WNW 03:15:48 45° WNW
H-2A ROCKET BODY 2.8 03:18:25 29° SE 03:18:25 29° SE 03:19:54 10° ESE
Resurs 1-4 Rocket 3.0 03:12:38 10° NNE 03:17:43 44° E 03:20:07 28° SSE
ATLAS 2A CENTAUR R/B 3.8 03:17:51 34° S 03:20:36 43° SE 03:49:55 10° E
SL-16 R/B 2.1 03:18:59 10° NNW 03:24:40 82° WSW 03:27:28 31° SSE
Spot 4 Rocket 4.0 03:20:46 10° N 03:25:53 70° WNW 03:26:55 54° SW
OAO 1 Rocket 4.3 03:24:49 46° W 03:26:25 76° SSW 03:31:47 10° ESE
Cosmos 923 Rocket 3.9 03:22:50 10° NNW 03:28:07 89° ENE 03:30:44 31° SSE
OAO 3 Rocket 3.1 03:28:58 50° W 03:30:10 82° N 03:34:54 10° E
Cosmos 1271 Rocket 4.1 03:30:36 10° NNW 03:32:40 26° NW 03:32:40 26° NW
EO 1 Del DPAF 3.4 03:34:35 45° SSE 03:35:41 75° ENE 03:39:35 10° N
Cosmos 2322 Rocket 2.2 03:31:22 10° NNW 03:36:52 58° WSW 03:38:48 38° SSW
USA 229 DEB 4.1 03:33:34 29° S 03:37:07 59° ESE 03:43:56 10° NE
USA 229 4.1 03:33:38 29° S 03:37:13 58° ESE 03:44:02 10° NE
Cosmos 1680 Rocket 3.5 03:32:11 10° NNW 03:37:25 82° ENE 03:41:37 16° SSE
GPS 2-05 Rocket1 2.8 03:40:06 76° NNE 03:40:06 76° NNE 03:43:21 10° E
Cosmos 2181 Rocket 4.1 03:37:56 10° NNW 03:43:56 57° W 03:46:40 32° SSW
Cosmos 773 Rocket 4.2 03:39:54 10° NNW 03:44:49 48° WSW 03:45:55 41° SW
Cosmos 1933 3.2 03:41:02 10° N 03:45:05 88° W 03:46:19 43° S
Cosmos 1703 Rocket 3.4 03:42:09 10° N 03:46:30 87° W 03:48:20 34° S
Lacrosse 5 rocket 1.5 03:42:04 10° NW 03:46:31 88° NE 03:51:07 10° SE
BREEZE-M DEB (TANK) 4.4 03:46:46 14° WNW 03:49:08 27° N 03:56:10 10° NE
GOES 2 Rocket 4.4 03:50:59 23° SSE 03:51:02 23° SSE 03:54:29 10° ESE
ARIANE 5 R/B 2.7 03:49:20 10° N 03:54:16 53° WNW 03:56:10 34° SW
IRS-1D 3.7 03:51:17 10° N 03:56:32 59° WNW 03:58:55 31° SW
Cosmos 1898 Rocket 3.4 04:00:57 26° SSW 04:03:57 88° ESE 04:09:09 10° NNE
CZ-2D R/B 2.1 03:59:47 10° N 04:04:59 64° WNW 04:07:59 26° SSW
MOS 1-B 4.4 03:59:43 10° N 04:05:28 69° WNW 04:09:08 23° SSW
Cosmos 2227 Rocket 4.4 04:02:42 10° SSE 04:06:44 21° E 04:10:48 10° NE
Cosmos 2360 Rocket 2.2 04:01:54 10° NNW 04:07:34 86° ENE 04:13:12 10° SSE
In-Cosmos 22 Rocket 4.1 04:04:53 18° S 04:08:52 85° E 04:14:16 10° N
Cosmos 2074 Rocket 4.1 04:07:23 23° SSW 04:11:10 56° W 04:17:18 10° N
Cosmos 1937 Rocket 3.7 04:07:56 18° S 04:11:54 74° ESE 04:17:12 10° NNE
Okean 1-7 3.0 04:09:20 10° NNW 04:13:42 69° W 04:17:13 15° S
SL-16 R/B 2.6 04:07:44 10° S 04:13:47 58° WSW 04:19:58 10° NNW
Meteor 1-26 Rocket 4.1 04:08:52 10° N 04:14:25 81° W 04:19:55 10° S
CZ-4B R/B 3.6 04:10:48 10° NNE 04:16:14 62° ESE 04:21:43 10° S
Cosmos 2184 Rocket 4.2 04:12:08 21° SSW 04:16:16 53° W 04:22:28 10° N
Cosmos 2219 3.3 04:14:49 22° SSW 04:18:32 68° WNW 04:24:17 10° NNE
Cosmos 2150 Rocket 4.1 04:15:53 23° SSW 04:19:09 63° WNW 04:24:29 10° N
Cosmos 2322 3.7 04:17:24 10° NNW 04:23:07 71° WSW 04:28:47 10° S
Okean O Rocket 1.5 04:21:46 10° N 04:26:12 79° WNW 04:29:53 14° SSW
MOZ.5/SAFIR/RUBIN 5/SL-8 4.3 04:29:58 10° SSE 04:34:35 64° ENE 04:39:15 10° N
GP-B 4.2 04:32:19 10° NNE 04:36:35 45° E 04:40:51 10° SSE
BREEZE-M DEB (TANK) 4.3 04:35:29 10° NNW 04:37:22 19° NNE 04:39:10 10° E
SEDSat Delta rocket 4.2 04:31:23 10° W 04:37:59 53° SSW 04:44:16 10° ESE
ADEOS II 4.1 04:33:57 10° NE 04:38:25 27° E 04:42:50 10° SSE
CZ-4B DEB 4.2 04:33:45 10° NNE 04:39:16 89° ESE 04:44:47 10° SSW
Cosmos 2297 Rocket 4.1 04:35:08 10° SSE 04:39:50 28° ESE 04:44:33 10° NE
ATLAS 5 CENTAUR R/B 3.7 04:37:06 10° W 04:40:32 19° NW 04:44:10 10° N
Cosmos 1892 2.7 04:38:49 10° SSW 04:42:41 71° W 04:46:34 10° N
PAYLOAD B 4.3 04:42:07 10° N 04:47:34 65° WNW 04:53:02 10° SSW
UNKNOWN OBJECT B 4.3 04:46:39 10° NNW 04:49:29 20° WNW 04:51:52 12° WSW
ISS -3.4 04:48:50 10° NW 04:52:03 62° SW 04:55:16 10° SE
Okean-O 3.0 04:48:34 10° NNE 04:52:59 67° ESE 04:57:23 10° S
BREEZE-M DEB (TANK) 3.8 04:43:20 11° WSW 04:53:20 49° NW 04:56:46 10° NE
COSMOS 2428 2.7 04:47:55 10° NNW 04:53:37 82° WSW 04:59:16 10° SSE
Resurs 1-4 Rocket 3.6 04:53:25 10° NNW 04:57:11 20° WNW 05:00:56 10° WSW
NOSS 3-1 (C) 3.5 04:56:39 10° SSW 05:02:24 78° ESE 05:08:43 10° NNE
CZ-2C R/B 4.4 04:59:43 10° SSW 05:03:43 32° W 05:07:48 10° NNW
AVUM R/B 2.6 05:01:51 11° SW 05:03:45 42° WNW 05:05:46 10° N
Cosmos 292 Rocket 3.8 04:59:10 10° NNW 05:03:55 64° WSW 05:08:37 10° S
DELTA 2 R/B (1) 4.1 05:02:10 10° SW 05:07:35 52° SSE 05:13:01 10° ENE
Coronas F rocket 1.5 05:07:15 10° SSW 05:09:55 52° W 05:12:37 10° N
Cosmos 2237 Rocket 3.6 05:07:50 10° N 05:13:17 45° ENE 05:18:42 10° SE
OAO 3 Rocket 3.2 05:09:03 10° W 05:13:41 65° SSW 05:18:23 10° ESE
ADEOS Rocket 4.3 05:09:11 10° NNE 05:14:51 41° E 05:20:06 10° SSE
ATLAS CENTAUR R/B 1.5 05:10:30 10° NW 05:14:58 58° WSW 05:19:03 10° SSE
Cosmos 2237 4.5 05:10:28 10° NNW 05:15:58 49° WSW 05:21:26 10° S
